Find Starlink 34728

NORAD ID: 65455 Int'l Des: 2025-194 Owner: SPXS Country: US Constellation: starlink operational
LEOCIRCULARRETROGRADESSO

リアルタイム位置

3D地球を読み込み中...

Starlink 34728について

説明を読み込み中...

次回通過

Passes for default location (London). Set your location on the main map for personalized predictions.

高度履歴

Loading altitude history...

軌道要素

1 65455U 25194X 26106.89925869 .00003033 00000-0 21434-3 0 9993
2 65455 97.6032 321.9981 0002255 79.9706 280.1775 15.05651634 35395
Epoch: Apr 16, 2026 • Age: 12 hours

現在のステータス

高度 556.8 km
速度 7.59 km/s
衛星直下点 51.40°N, 166.82°E
打ち上げ日 Sep 3, 2025
運用期間 0.6 years
タイプ internet

技術仕様

分類 Payload
質量 575.00 kg
乾燥質量 530.00 kg
総質量 575.00 kg
長さ 0.30 m
直径 4.10 m
スパン 29.00 m
形状 Box + pan
製造者 SPXS
バスタイプ Starlink V2MO
フェーズステータス In Orbit
所有者/国 SPXS/US

Most Searched